Regional Weather Roundup
Issued by NWS

Home | Current Version | Previous Version | Graphics & Text | Print | Product List | Glossary On
Versions: 1 2 3 4 5 6 7 8 9 10 11 12 13 14 15 16 17 18 19 20 21 22 23 24 25 26 27 28 29 30 31 32 33 34 35 36 37 38 39 40 41 42 43 44 45 46 47 48 49 50
000
ASUS43 KMKX 260300
RWRWI

WISCONSIN REGIONAL WEATHER ROUNDUP
NATIONAL WEATHER SERVICE MILWAUKEE/SULLIVAN WI
1000 PM CDT FRI JUL 25 2014

NOTE: "FAIR" INDICATES FEW OR NO CLOUDS BELOW 12,000 FEET WITH NO
SIGNIFICANT WEATHER AND/OR OBSTRUCTIONS TO VISIBILITY.

WIZ001-002-006>008-014>016-023>028-260400-
NORTHWEST WISCONSIN

CITY           SKY/WX    TMP DP  RH WIND       PRES   REMARKS
SUPERIOR ARPT  CLOUDY    64  61  91 CALM      29.77R
ASHLAND        CLOUDY    68  64  87 SW6       29.80R
HAYWARD        CLOUDY    68  66  93 CALM      29.82R
SIREN          CLOUDY    71  67  88 S7        29.80R
RICE LAKE      CLOUDY    69  66  88 SE3       29.83R
LADYSMITH      CLOUDY    69  65  86 SE5       29.84S
EAU CLAIRE     NOT AVBL
MENOMONIE      CLOUDY    72  67  84 SE6       29.81R
NEW RICHMOND   CLOUDY    71  68  91 SE6       29.80R
OSCEOLA        CLOUDY    73  71  93 SE7       29.81R
$$

WIZ003>005-009-010-017-018-260400-
NORTH CENTRAL WISCONSIN

CITY           SKY/WX    TMP DP  RH WIND       PRES   REMARKS
WOODRUFF       CLOUDY    65  62  90 SW6       29.84F
RHINELANDER    CLOUDY    64  62  93 SW8       29.86S
EAGLE RIVER    CLOUDY    64  62  92 CALM      29.84F
LAND O LAKES   CLOUDY    65  62  90 S5        29.84F
PHILLIPS       CLOUDY    65  64  94 S5        29.83S
TOMAHAWK       CLOUDY    64  61  90 CALM      29.85F
MEDFORD        CLOUDY    65  62  91 S7        29.85S
MERRILL        CLOUDY    65  63  93 S3        29.86S
$$

WIZ029-030-035-036-043>047-260400-
CENTRAL WISCONSIN

CITY           SKY/WX    TMP DP  RH WIND       PRES   REMARKS
WAUSAU         MOCLDY    66  62  87 S7        29.84F
MOSINEE        CLOUDY    64  63  94 S7        29.87F
MARSHFIELD     CLEAR     65  62  90 S7        29.85F
STEVENS POINT  CLOUDY    66  61  84 S7        29.87F
WAUPACA        CLOUDY    69  63  79 CALM      29.88F
WAUTOMA        NOT AVBL
WISC RAPIDS    CLEAR     67  62  84 S6        29.87F
CAMP DOUGLAS   NOT AVBL
$$

WIZ011>013-019>022-031-037>040-048>050-260400-
NORTHEAST WISCONSIN

CITY           SKY/WX    TMP DP  RH WIND       PRES   REMARKS
ANTIGO         CLOUDY    62  61  96 S3        29.87S
STURGEON BAY   MOCLDY    63  57  82 S7        29.87F
GREEN BAY      MOCLDY    66  61  84 S5        29.87F
MANITOWOC      NOT AVBL
APPLETON       CLOUDY    68  61  77 S7        29.89S
CLINTONVILLE   CLOUDY    68  61  77 S5        29.86F
OSHKOSH        CLOUDY    69  62  78 S8        29.89S
$$

WIZ032>034-041-042-053>061-260400-
SOUTHWEST WISCONSIN

CITY           SKY/WX    TMP DP  RH WIND       PRES   REMARKS
LA CROSSE      CLOUDY    72  64  76 SE13      29.83R
SPARTA         PTCLDY    67  61  80 S3        29.86S
VIROQUA        CLOUDY    66  64  91 SE8       29.87S
BOSCOBEL       CLOUDY    70  62  76 MISG      29.86S
PRAIRIE DU CHI CLOUDY    70  63  78 E7        29.84S
PLATTEVILLE    CLOUDY    67  63  87 SE9       29.89S
$$

WIZ056-057-062-063-064-067-068-260400-
SOUTH CENTRAL WISCONSIN

CITY           SKY/WX    TMP DP  RH WIND       PRES   REMARKS
BARABOO/DELLS  MOCLDY    66  60  80 S8        29.89S
LONE ROCK      NOT AVBL
WATERTOWN      PTCLDY    65  61  87 CALM      29.91R
MADISON        CLOUDY    69  61  75 S8        29.90S
MIDDLETON      CLOUDY    69  60  74 S6        29.90F
MONROE         CLOUDY    64  61  88 S13       29.91S
JANESVILLE     CLOUDY    68  59  73 S10       29.91S
$$

WIZ051-052-058>065-066-070>072-260400-
SOUTHEAST WISCONSIN

CITY           SKY/WX    TMP DP  RH WIND       PRES   REMARKS
MILWAUKEE      PTCLDY    68  59  73 SW8       29.92R
WAUKESHA       CLOUDY    64  59  82 SW5       29.93S
MILWAUKEE/TIMM CLOUDY    68  57  68 SW8       29.92R
RACINE         MOCLDY    68  60  75 S5        29.94R
BURLINGTON     CLOUDY    64  60  85 S5        29.93R
KENOSHA        CLOUDY    67  60  78 S6        29.93R
FOND DU LAC    CLOUDY    69  61  75 SW7       29.90S
SHEBOYGAN      CLOUDY    66  59  78 S7        29.90R
WEST BEND      CLOUDY    68  59  73 SW5       29.91R
JUNEAU         CLOUDY    66  60  81 S3        29.92S
$$

LSZ147-162-260400-
LAKE SUPERIOR

STATION/POSITION TIME  TEMP    WIND        PRES    WAVE
                       AIR SEA DIR/SP/G            HT/PER
                 (UTC) (F)     (DEG/KT/KT) (MB)    (FT/S)
W MID LAKE BUOY  0150   52 49  140/  6/  8 1008.0F   0
PORT WING        0200   71     170/  4/  9 1008.1
SAXON HARBOR     0200          190/  4/  9 1008.1F
$$

LMZ867-665-643>646-260400-
LAKE MICHIGAN

STATION/POSITION TIME  TEMP    WIND        PRES    WAVE
                       AIR SEA DIR/SP/G            HT/PER
                 (UTC) (F)     (DEG/KT/KT) (MB)    (FT/S)
N MID LAKE BUOY  0150   58 55  200/ 12/ 14 1010.5F   3/ 5
NORTHPORT PIER   0200   64     170/  4/  9 1011.2R
KEWAUNEE LAKESHO 0200   55     180/  5/  7 1012.5S
SHEBOYGAN LAKESH 0200   65     180/ 14/ 14 1012.1F
PORT WASHINGTON  0200   61     160/  4/  6 1012.9S
ATWATER BUOY     0200   62     160/  8     1013.6R
MILWAUKEE LAKESH 0200   71     220/ 10/ 12   N/A
S MID LAKE BUOY  0150   64 61  190/  8/ 10 1013.4R   1/ 3
KENOSHA   LAKESH 0200   71     220/  5/  9 1012.9R
$$

TC  - TEMPERATURE IN CELSIUS
VSB - VISIBILITY IN STATUTE MILES
WCI - WIND CHILL INDEX
HX  - HEAT INDEX




USA.gov is the U.S. government's official web portal to all federal, state and local government web resources and services.